Location: Krakow
(50.0830°N, 19.9170°E)
Time: 18:27:17
(UTC+01:00)

Vanguard 1 Rocket - Pass Details

Date: 23 December 2025
Orbit: 651 x 4216 km, 34.3° (Epoch: 19 January)

Event Time Altitude Azimuth Distance (km) Brightness Sun altitude
Exits shadow 04:01:51 10° 161° (SSE) 2,241 9.6 -33.2°
Drops below altitude 10° 04:02:06 10° 158° (SSE) 2,245 9.6 -33.2°
Sets 04:06:13 0° 119° (ESE) 2,973 10.9 -32.5°
